CA3EVY-3 Weather Reports


Display with metric or nautical units.
time (UTC)temp
F
wind
direction
speed
MPH
gust
MPH
rain 1hr
in
rain 24hr
in
rain mn
in
humidity
%
barometer
mb
20260506101503 56 0.0 0.0 0.00 0.00 0.00 64 917.4
20260506100004 55 0.0 0.0 0.00 0.00 0.00 63 917.2
20260506094503 55 0.0 0.0 0.00 0.00 0.00 63 917.0
20260506093004 55 0.0 0.0 0.00 0.00 0.00 62 916.6
20260506091503 55 0.0 0.0 0.00 0.00 0.00 62 916.4
20260506090004 56 0.0 0.0 0.00 0.00 0.00 62 916.2
20260506084503 56 0.0 0.0 0.00 0.00 0.00 62 916.4
20260506083004 56 0.0 0.0 0.00 0.00 0.00 62 916.6
20260506081503 56 0.0 0.0 0.00 0.00 0.00 62 916.6
20260506073003 57 0.0 0.0 0.00 0.00 0.00 61 916.0
20260506071504 57 0.0 0.0 0.00 0.00 0.00 61 916.0
20260506061503 58 0.0 0.0 0.00 0.00 0.00 61 916.5
20260506044504 58 0.0 0.0 0.00 0.00 0.00 60 916.9
20260506043004 58 0.0 0.0 0.00 0.00 0.00 60 916.9
20260506041504 58 0.0 0.0 0.00 0.00 0.00 60 917.1
20260506040004 59 0.0 0.0 0.00 0.00 0.00 59 917.2
20260506034504 59 0.0 0.0 0.00 0.00 0.00 59 917.3
20260506033004 59 0.0 0.0 0.00 0.00 0.00 59 917.4
20260506031504 59 0.0 0.0 0.00 0.00 0.00 59 917.3
20260506030004 59 0.0 0.0 0.00 0.00 0.00 59 917.2
20260506024503 59 0.0 0.0 0.00 0.00 0.00 59 917.2
20260506023004 59 0.0 0.0 0.00 0.00 0.00 58 917.3
20260506021503 59 0.0 0.0 0.00 0.00 0.00 58 917.3
20260506020003 60 0.0 0.0 0.00 0.00 0.00 58 917.0
20260506014504 60 0.0 0.0 0.00 0.00 0.00 58 917.1
20260506013003 60 0.0 0.0 0.00 0.00 0.00 57 917.2
20260506011504 60 0.0 0.0 0.00 0.00 0.00 57 917.4
20260506010004 61 0.0 0.0 0.00 0.00 0.00 57 917.4
20260506004504 61 0.0 0.0 0.00 0.00 0.00 57 917.5
20260506003003 61 0.0 0.0 0.00 0.00 0.00 56 917.4
20260506001503 61 0.0 0.0 0.00 0.00 0.00 56 916.8
20260506000004 61 0.0 0.0 0.00 0.00 0.00 56 916.7
20260505234504 61 0.0 0.0 0.00 0.00 0.00 56 916.6
20260505233008 61 0.0 0.0 0.00 0.00 0.00 55 916.6
20260505231504 61 0.0 0.0 0.00 0.00 0.00 55 916.7
20260505230003 62 0.0 0.0 0.00 0.00 0.00 53 916.4
20260505224504 62 0.0 0.0 0.00 0.00 0.00 53 916.2
20260505223004 63 0.0 0.0 0.00 0.00 0.00 51 915.9
20260505221503 63 0.0 0.0 0.00 0.00 0.00 51 916.1
20260505220004 64 0.0 0.0 0.00 0.00 0.00 46 915.9
20260505214503 64 0.0 0.0 0.00 0.00 0.00 46 915.6
20260505213003 65 0.0 0.0 0.00 0.00 0.00 43 915.2
20260505211503 65 0.0 0.0 0.00 0.00 0.00 43 915.2
20260505210005 66 0.0 0.0 0.00 0.00 0.00 41 915.3
20260505204505 66 0.0 0.0 0.00 0.00 0.00 41 915.3
20260505203003 67 0.0 0.0 0.00 0.00 0.00 40 915.3
20260505201504 67 0.0 0.0 0.00 0.00 0.00 40 915.1
20260505200004 67 0.0 0.0 0.00 0.00 0.00 39 915.2
20260505194503 67 0.0 0.0 0.00 0.00 0.00 39 915.2
20260505193003 68 0.0 0.0 0.00 0.00 0.00 36 915.1
20260505191503 68 0.0 0.0 0.00 0.00 0.00 36 915.1
20260505190003 69 0.0 0.0 0.00 0.00 0.00 35 915.1
20260505184503 69 0.0 0.0 0.00 0.00 0.00 35 915.0
20260505183003 69 0.0 0.0 0.00 0.00 0.00 35 914.9
20260505181504 69 0.0 0.0 0.00 0.00 0.00 35 914.8
20260505180004 69 0.0 0.0 0.00 0.00 0.00 36 914.9
20260505174504 68 0.0 0.0 0.00 0.00 0.00 36 914.9
20260505173003 68 0.0 0.0 0.00 0.00 0.00 37 914.6
20260505171504 68 0.0 0.0 0.00 0.00 0.00 37 914.8
20260505170003 67 0.0 0.0 0.00 0.00 0.00 39 914.8
20260505164504 67 0.0 0.0 0.00 0.00 0.00 39 914.9
20260505163008 67 0.0 0.0 0.00 0.00 0.00 39 915.0
20260505161503 66 0.0 0.0 0.00 0.00 0.00 39 914.9
20260505153005 64 0.0 0.0 0.00 0.00 0.00 43 915.2
20260505151504 64 0.0 0.0 0.00 0.00 0.00 43 915.5
20260505124503 59 0.0 0.0 0.00 0.00 0.00 45 916.6
20260505123004 59 0.0 0.0 0.00 0.00 0.00 43 917.0
20260505121503 59 0.0 0.0 0.00 0.00 0.00 43 917.0
20260505120004 58 0.0 0.0 0.00 0.00 0.00 45 917.1
20260505114503 58 0.0 0.0 0.00 0.00 0.00 45 917.2
20260505113004 58 0.0 0.0 0.00 0.00 0.00 45 917.2
20260505111503 58 0.0 0.0 0.00 0.00 0.00 45 917.2